| time (UTC) | temp F | wind direction | speed knots | gust knots | rain 1hr in | rain 24hr in | rain mn in | humidity % | barometer mb |
| 20260901174530 | 84 | 217 | 0.9 | 1.7 | 0.00 | 0.03 | 0.00 | 77 | 1014.6 |
| 20260901173010 | 83 | 204 | 1.7 | 3.5 | 0.00 | 0.03 | 0.00 | 78 | 1014.6 |
| 20260901171516 | 83 | 196 | 1.7 | 4.3 | 0.00 | 0.03 | 0.00 | 79 | 1014.8 |
| 20260901170025 | 82 | 196 | 0.9 | 3.5 | 0.00 | 0.03 | 0.00 | 80 | 1014.8 |
| 20260901164531 | 82 | 199 | 0.9 | 1.7 | 0.00 | 0.03 | 0.00 | 81 | 1015.1 |
| 20260901163032 | 81 | 207 | 1.7 | 2.6 | 0.00 | 0.03 | 0.00 | 84 | 1015.3 |
| 20260901161515 | 80 | 200 | 1.7 | 2.6 | 0.00 | 0.03 | 0.00 | 85 | 1015.4 |
| 20260901160022 | 79 | 200 | 0.9 | 1.7 | 0.00 | 0.03 | 0.00 | 87 | 1015.6 |
| 20260901154526 | 78 | 200 | 0.9 | 1.7 | 0.00 | 0.03 | 0.00 | 88 | 1015.6 |
| 20260901153039 | 78 | 196 | 0.9 | 1.7 | 0.00 | 0.03 | 0.00 | 89 | 1015.7 |
| 20260901151533 | 77 | 209 | 1.7 | 2.6 | 0.00 | 0.03 | 0.00 | 89 | 1015.6 |
| 20260901150017 | 77 | 191 | 1.7 | 2.6 | 0.00 | 0.03 | 0.00 | 90 | 1015.9 |
| 20260901144535 | 76 | 203 | 0.9 | 1.7 | 0.00 | 0.03 | 0.00 | 90 | 1015.9 |
| 20260901143031 | 76 | 203 | 0.9 | 1.7 | 0.00 | 0.03 | 0.00 | 89 | 1016.0 |
| 20260901141536 | 76 | 185 | 0.9 | 2.6 | 0.00 | 0.03 | 0.00 | 88 | 1015.7 |
| 20260901140017 | 76 | 194 | 1.7 | 3.5 | 0.00 | 0.03 | 0.00 | 88 | 1015.6 |
| 20260901134527 | 76 | 200 | 2.6 | 3.5 | 0.00 | 0.03 | 0.00 | 90 | 1015.8 |
| 20260901133038 | 75 | 197 | 0.9 | 2.6 | 0.00 | 0.03 | 0.00 | 93 | 1015.8 |
| 20260901131534 | 73 | 192 | 1.7 | 2.6 | 0.00 | 0.03 | 0.00 | 96 | 1015.8 |
| 20260901130033 | 72 | 213 | 0.9 | 1.7 | 0.00 | 0.03 | 0.00 | 97 | 1016.2 |
| 20260901124531 | 72 | 96 | 0.0 | 0.9 | 0.00 | 0.03 | 0.00 | 97 | 1016.4 |
| 20260901123028 | 71 | 96 | 0.0 | 0.0 | 0.00 | 0.03 | 0.00 | 97 | 1016.2 |
| 20260901121529 | 71 | 350 | 0.0 | 1.7 | 0.00 | 0.03 | 0.00 | 97 | 1016.5 |
| 20260901120003 | 71 | 352 | 0.0 | 1.7 | 0.00 | 0.03 | 0.00 | 97 | 1016.0 |
| 20260901114503 | 70 | 182 | 0.0 | 0.0 | 0.00 | 0.03 | 0.00 | 97 | 1015.7 |
| 20260901113004 | 69 | 182 | 0.0 | 0.0 | 0.00 | 0.03 | 0.00 | 97 | 1015.8 |
| 20260901111504 | 68 | 182 | 0.0 | 0.0 | 0.00 | 0.03 | 0.00 | 97 | 1016.0 |
| 20260901110007 | 68 | 182 | 0.0 | 0.0 | 0.00 | 0.03 | 0.00 | 97 | 1016.1 |
| 20260901104503 | 68 | 182 | 0.0 | 0.0 | 0.00 | 0.03 | 0.00 | 97 | 1016.1 |
| 20260901103003 | 68 | 182 | 0.0 | 0.0 | 0.00 | 0.03 | 0.00 | 97 | 1016.3 |
| 20260901101503 | 68 | 182 | 0.0 | 0.0 | 0.00 | 0.03 | 0.00 | 97 | 1016.1 |
| 20260901100003 | 68 | 182 | 0.0 | 0.0 | 0.00 | 0.03 | 0.00 | 97 | 1016.1 |
| 20260901094506 | 68 | 182 | 0.0 | 0.0 | 0.00 | 0.03 | 0.00 | 96 | 1016.1 |
| 20260901093004 | 68 | 182 | 0.0 | 0.0 | 0.00 | 0.03 | 0.00 | 96 | 1016.2 |
| 20260901091503 | 68 | 182 | 0.0 | 0.0 | 0.00 | 0.03 | 0.00 | 96 | 1016.3 |
| 20260901090013 | 68 | 182 | 0.0 | 0.0 | 0.00 | 0.03 | 0.00 | 96 | 1016.2 |
| 20260901084505 | 68 | 182 | 0.0 | 0.0 | 0.00 | 0.03 | 0.00 | 96 | 1016.3 |
| 20260901083008 | 69 | 182 | 0.0 | 0.0 | 0.00 | 0.03 | 0.00 | 96 | 1016.4 |
| 20260901081516 | 68 | 182 | 0.0 | 0.0 | 0.00 | 0.03 | 0.00 | 96 | 1016.4 |
| 20260901080005 | 68 | 182 | 0.0 | 0.0 | 0.00 | 0.03 | 0.00 | 96 | 1016.5 |
| 20260901074507 | 68 | 182 | 0.0 | 0.0 | 0.00 | 0.03 | 0.00 | 96 | 1016.7 |
| 20260901073022 | 68 | 182 | 0.0 | 0.0 | 0.00 | 0.03 | 0.00 | 96 | 1016.7 |
| 20260901071509 | 69 | 182 | 0.0 | 0.0 | 0.00 | 0.03 | 0.00 | 96 | 1016.6 |
| 20260901070023 | 69 | 182 | 0.0 | 0.0 | 0.00 | 0.03 | 0.00 | 96 | 1016.6 |
| 20260901064511 | 69 | 182 | 0.0 | 0.0 | 0.00 | 0.03 | 0.00 | 96 | 1016.7 |
| 20260901063011 | 69 | 182 | 0.0 | 0.0 | 0.00 | 0.03 | 0.00 | 96 | 1016.9 |
| 20260901061511 | 69 | 182 | 0.0 | 0.0 | 0.00 | 0.03 | 0.00 | 96 | 1017.0 |
| 20260901060011 | 69 | 182 | 0.0 | 0.0 | 0.00 | 0.03 | 0.00 | 95 | 1017.3 |
| 20260901054513 | 69 | 182 | 0.0 | 0.0 | 0.00 | 0.03 | 0.00 | 96 | 1017.3 |
| 20260901053011 | 69 | 182 | 0.0 | 0.0 | 0.00 | 0.03 | 0.00 | 96 | 1017.4 |
| 20260901051513 | 69 | 182 | 0.0 | 0.0 | 0.00 | 0.03 | 0.00 | 96 | 1017.5 |
| 20260901050018 | 69 | 182 | 0.0 | 0.0 | 0.00 | 0.03 | 0.00 | 95 | 1017.7 |
| 20260901044516 | 70 | 182 | 0.0 | 0.0 | 0.00 | 0.03 | 0.00 | 95 | 1017.5 |
| 20260901043018 | 69 | 182 | 0.0 | 0.0 | 0.00 | 0.03 | 0.00 | 95 | 1017.4 |
| 20260901041515 | 70 | 182 | 0.0 | 0.0 | 0.01 | 0.03 | 0.00 | 95 | 1017.5 |
| 20260901040020 | 70 | 182 | 0.0 | 0.0 | 0.01 | 0.03 | 0.00 | 94 | 1017.8 |
| 20260901034522 | 70 | 182 | 0.0 | 0.0 | 0.01 | 0.03 | 0.03 | 94 | 1017.9 |
| 20260901033034 | 70 | 182 | 0.0 | 0.0 | 0.01 | 0.03 | 0.03 | 94 | 1017.8 |
| 20260901031520 | 70 | 182 | 0.0 | 0.0 | 0.00 | 0.02 | 0.02 | 93 | 1018.0 |
| 20260901030015 | 70 | 182 | 0.0 | 0.0 | 0.00 | 0.02 | 0.02 | 94 | 1018.3 |
| 20260901024526 | 70 | 182 | 0.0 | 0.0 | 0.00 | 0.02 | 0.02 | 94 | 1018.3 |
| 20260901023028 | 70 | 182 | 0.0 | 0.0 | 0.00 | 0.02 | 0.02 | 94 | 1018.3 |
| 20260901021522 | 69 | 182 | 0.0 | 0.0 | 0.00 | 0.02 | 0.02 | 93 | 1018.3 |
| 20260901020028 | 69 | 182 | 0.0 | 0.0 | 0.00 | 0.02 | 0.02 | 93 | 1018.3 |
| 20260901014517 | 69 | 182 | 0.0 | 0.0 | 0.00 | 0.02 | 0.02 | 93 | 1018.2 |
| 20260901013023 | 69 | 182 | 0.0 | 0.0 | 0.00 | 0.02 | 0.02 | 92 | 1018.2 |
| 20260901011526 | 70 | 182 | 0.0 | 0.0 | 0.00 | 0.02 | 0.02 | 92 | 1018.2 |
| 20260901010025 | 70 | 182 | 0.0 | 0.0 | 0.00 | 0.02 | 0.02 | 91 | 1018.1 |
| 20260901004532 | 70 | 182 | 0.0 | 0.0 | 0.00 | 0.02 | 0.02 | 91 | 1018.1 |
| 20260901003024 | 71 | 182 | 0.0 | 0.0 | 0.00 | 0.02 | 0.02 | 90 | 1018.1 |
| 20260901001533 | 71 | 182 | 0.0 | 0.0 | 0.00 | 0.02 | 0.02 | 89 | 1018.0 |
| 20260901000027 | 72 | 182 | 0.0 | 0.0 | 0.00 | 0.02 | 0.02 | 87 | 1018.0 |
| 20260831234537 | 73 | 182 | 0.0 | 0.0 | 0.00 | 0.02 | 0.02 | 86 | 1017.9 |
| 20260831233029 | 73 | 182 | 0.0 | 0.0 | 0.00 | 0.02 | 0.02 | 85 | 1017.9 |
| 20260831231522 | 74 | 182 | 0.0 | 1.7 | 0.00 | 0.02 | 0.02 | 84 | 1017.9 |
| 20260831230029 | 74 | 182 | 0.0 | 1.7 | 0.00 | 0.02 | 0.02 | 83 | 1018.0 |
| 20260831224530 | 75 | 182 | 0.0 | 0.0 | 0.00 | 0.02 | 0.02 | 83 | 1018.2 |
| 20260831223028 | 75 | 182 | 0.0 | 1.7 | 0.00 | 0.02 | 0.02 | 82 | 1018.2 |
| 20260831221531 | 75 | 182 | 0.0 | 1.7 | 0.00 | 0.02 | 0.02 | 81 | 1018.3 |
| 20260831220030 | 75 | 182 | 0.0 | 0.0 | 0.00 | 0.02 | 0.02 | 81 | 1018.5 |
| 20260831214540 | 76 | 182 | 0.0 | 1.7 | 0.00 | 0.02 | 0.02 | 79 | 1018.6 |
| 20260831213038 | 76 | 182 | 0.0 | 1.7 | 0.00 | 0.02 | 0.02 | 81 | 1018.6 |
| 20260831211530 | 75 | 182 | 0.0 | 0.9 | 0.00 | 0.02 | 0.02 | 83 | 1018.7 |
| 20260831210004 | 75 | 182 | 0.0 | 1.7 | 0.00 | 0.02 | 0.02 | 85 | 1018.8 |
| 20260831204504 | 74 | 182 | 0.0 | 1.7 | 0.00 | 0.02 | 0.02 | 84 | 1019.0 |
| 20260831203037 | 74 | 203 | 0.0 | 1.7 | 0.00 | 0.02 | 0.02 | 85 | 1019.2 |
| 20260831201518 | 73 | 200 | 0.9 | 1.7 | 0.01 | 0.02 | 0.02 | 91 | 1019.3 |
| 20260831200026 | 72 | 207 | 0.0 | 1.7 | 0.02 | 0.02 | 0.02 | 90 | 1019.3 |
| 20260831194504 | 73 | 207 | 0.0 | 0.9 | 0.02 | 0.02 | 0.02 | 90 | 1019.4 |
| 20260831193011 | 73 | 207 | 0.0 | 1.7 | 0.02 | 0.02 | 0.02 | 88 | 1019.5 |
| 20260831191515 | 73 | 207 | 0.9 | 1.7 | 0.01 | 0.01 | 0.01 | 86 | 1020.0 |
| 20260831190026 | 74 | 192 | 0.0 | 1.7 | 0.00 | 0.00 | 0.00 | 83 | 1019.8 |
| 20260831184530 | 75 | 192 | 0.9 | 1.7 | 0.00 | 0.00 | 0.00 | 81 | 1019.9 |
| 20260831183007 | 76 | 192 | 0.9 | 1.7 | 0.00 | 0.00 | 0.00 | 78 | 1020.2 |
| 20260831181510 | 76 | 192 | 0.9 | 1.7 | 0.00 | 0.00 | 0.00 | 75 | 1020.2 |
| 20260831180020 | 77 | 192 | 0.0 | 1.7 | 0.00 | 0.00 | 0.00 | 78 | 1020.1 |